Location: Saint Neots
(52.2167°N, 0.2667°W)
Time: 16:41:19
(UTC+00:00)

Daily predictions for brighter satellites

Satellite Brightness Start Highest point End
(mag) Time Altitude Azimuth Time Altitude Azimuth Time Altitude Azimuth
NOSS 3-1 (C) 3.9 16:59:40 10° NW 17:06:15 68° NE 17:14:37 10° ESE
Cosmos 2360 4.4 17:01:50 10° NNW 17:07:35 80° WSW 17:13:17 10° SSE
Cosmos 1110 Rocket 4.3 17:04:58 10° SSW 17:10:10 73° WNW 17:15:21 10° NNE
SJ-12 4.0 17:07:32 10° SE 17:11:10 44° ENE 17:14:50 10° N
Cosmos 1733 Rocket 3.9 17:10:29 10° N 17:14:18 28° ENE 17:18:03 10° SE
Cosmos 2333 Rocket 3.9 17:11:53 10° NNW 17:15:18 16° NNE 17:18:43 10° ENE
USA 59 Rocket 0.0 17:13:20 10° NW 17:16:38 70° SW 17:20:54 10° SE
Cosmos 2181 Rocket 4.0 17:11:20 10° S 17:17:32 79° E 17:23:51 10° NNE
MOS 1 Rocket 3.4 17:13:39 10° SSE 17:18:41 77° ENE 17:23:29 10° N
Cosmos 1980 Rocket 2.7 17:13:34 10° NNW 17:18:45 36° NE 17:23:54 10° ESE
Meteor 1-28 Rocket 2.8 17:18:33 10° NNE 17:21:51 87° E 17:25:09 10° SSW
Cosmos 1933 Rocket 3.7 17:17:37 10° NNW 17:22:01 82° W 17:26:21 10° S
IRS-1C 4.1 17:18:31 10° SSE 17:23:49 72° ENE 17:29:08 10° NNW
Cosmos 1953 4.3 17:22:42 10° NNW 17:26:00 31° W 17:29:16 10° SSW
Cosmos 2239 Rocket 4.5 17:21:36 10° N 17:27:53 73° ENE 17:34:05 10° SSE
Cosmos 1452 Rocket 3.9 17:27:06 10° SW 17:32:20 68° WNW 17:37:37 10° NNE
ATLAS 5 CENTAUR R/B 2.9 17:30:39 10° WNW 17:33:00 18° NNW 17:35:36 10° NNE
Cosmos 2219 Rocket 4.1 17:31:25 10° NNW 17:33:46 12° NNE 17:36:06 10° NE
Okean 3 3.3 17:30:24 10° S 17:34:24 64° E 17:38:23 10° NNE
ERS-1 4.4 17:31:15 10° SSE 17:36:14 76° ENE 17:41:19 10° NNW
Cosmos 1486 Rocket 4.3 17:31:15 10° NNW 17:36:21 44° NE 17:41:23 10° SE
NOSS 2-1 (C) 3.9 17:36:22 10° NW 17:39:38 54° SW 17:43:49 10° SSE
Cosmos 1697 Rocket 2.7 17:33:58 10° NNW 17:39:41 85° ENE 17:45:22 10° SSE
NOSS 2-1 (E) 3.6 17:36:34 10° NW 17:39:51 62° SW 17:44:03 10° SSE
SWAS 4.2 17:36:02 10° NNW 17:40:04 67° NE 17:44:04 10° SE
BREEZE-M DEB (TANK) 3.5 17:37:14 10° SW 17:40:09 44° SSE 17:47:10 13° E
Thor Agena Rocket 4.1 17:36:48 10° S 17:41:45 61° WSW 17:46:47 10° NNW
SJ-6F 4.3 17:38:27 10° SSE 17:42:28 72° ENE 17:46:29 10° N
ISS -3.8 17:40:26 10° W 17:43:48 82° S 17:46:23 16° E
AQUARIUS 4.2 17:41:27 10° SSE 17:45:52 85° WSW 17:50:18 10° NNW
Cosmos 1833 Rocket 2.8 17:40:53 10° S 17:46:24 57° ESE 17:51:55 10° NE
Okean 1-7 3.8 17:43:18 10° SSE 17:46:48 28° E 17:50:20 10° NNE
Cosmos 2360 Rocket 3.8 17:44:39 10° NNW 17:48:03 16° NNE 17:50:13 13° NE
SPOT 1/Viking Rocket 3.5 17:43:44 10° SSE 17:48:51 75° ENE 17:53:59 10° NNW
Cosmos 1869 Rocket 4.1 17:44:39 10° NNW 17:48:59 63° W 17:53:15 10° S
SL-16 R/B 3.2 17:43:39 10° N 17:49:40 57° WNW 17:55:40 10° SW
Nadezhda 3 Rocket 3.9 17:44:20 10° S 17:50:28 75° E 17:56:41 10° NNE
BlueWalker 3 3.5 17:48:07 10° S 17:50:40 19° SE 17:52:09 15° ESE
USA 267 3.5 17:46:25 14° ENE 17:52:03 60° N 17:58:27 10° WNW
Meteor 2-8 Rocket 4.4 17:47:10 10° N 17:53:23 85° E 17:59:33 10° SSE
Resurs 01 Rocket 2.5 17:50:35 10° ESE 17:54:18 28° ENE 17:58:01 10° N
Cosmos 2228 Rocket 3.8 17:50:42 10° SSE 17:54:35 30° E 17:58:28 10° NNE
Cosmos 2082 Rocket 3.5 17:52:21 10° SE 17:55:53 17° E 17:56:44 17° E
SMAP 4.5 17:52:22 10° S 17:56:47 42° W 18:01:14 10° NNW
SL-16 R/B 3.4 17:54:27 10° NNW 17:59:00 24° NE 18:01:19 19° ENE
Cosmos 1777 Rocket 4.1 17:56:17 10° NNW 18:01:24 54° ENE 18:06:30 10° SE
COSMO-SKYMED 1 3.1 17:58:32 13° NE 18:01:46 33° E 18:05:29 10° SSE
SJ-6B 4.3 18:04:21 16° NNE 18:04:21 16° NNE 18:05:35 10° NNE
Spot 4 Rocket 4.0 17:59:20 10° SSE 18:04:22 61° ENE 18:09:25 10° N
USA 305 2.7 18:02:10 10° SW 18:05:54 64° SSE 18:07:58 27° E
IRS-P3 4.3 18:01:18 10° S 18:06:36 75° WSW 18:11:58 10° NNW
Resurs 1-3 3.4 18:02:23 10° SSE 18:06:40 69° ENE 18:10:58 10° N
Cosmos 1862 Rocket 3.5 18:13:20 10° S 18:17:42 65° E 18:22:03 10° NNE
YAOGAN 1 2.4 18:13:48 10° SSE 18:18:03 86° ENE 18:22:21 10° NNW
SL-19 R/B 4.5 18:12:44 10° SSE 18:19:00 70° ENE 18:25:15 10° NNW
Meteor 1-24 Rocket 4.2 18:15:03 10° SSE 18:20:24 41° E 18:25:56 10° NNE
ARIANE 5 R/B 3.9 18:15:32 10° S 18:20:27 42° W 18:25:23 10° NNW
Cosmos 1908 Rocket 3.8 18:22:07 10° N 18:26:20 44° ENE 18:30:32 10° SSE
SJ-7 4.1 18:23:30 10° SSE 18:27:16 87° E 18:31:04 10° NNW
ATLAS 3B R/B 3.6 18:20:10 10° NW 18:27:33 40° NNE 18:31:24 25° ENE
Cosmos 909 Rocket 4.2 18:21:03 10° SSW 18:28:23 68° SE 18:32:44 22° NE
COSMOS 2455 3.5 18:25:10 10° NW 18:31:03 57° WSW 18:36:55 10° SSE
PSLV R/B 3.3 18:27:35 10° SSE 18:31:46 85° ENE 18:35:57 10° NNW
USA 276 3.3 18:30:10 10° WSW 18:32:13 25° SSW 18:32:27 25° S
Cosmos 1707 Rocket 3.4 18:27:57 10° S 18:32:15 86° E 18:36:34 10° NNE
Cosmos 1605 Rocket 3.9 18:26:31 10° N 18:32:57 79° E 18:39:16 10° SSE
CZ-2D R/B 3.5 18:29:34 10° S 18:33:21 68° WSW 18:37:12 10° NNW
Cosmos 2237 Rocket 4.4 18:36:25 10° NNW 18:38:06 11° N 18:39:47 10° NNE
NOSS 3-4 (A) 4.4 18:33:25 10° W 18:38:34 37° NNW 18:42:17 20° NE
NOSS 3-4 (C) 4.4 18:33:34 10° W 18:38:44 37° NNW 18:42:30 20° NE
RESURS DK-1 4.5 18:36:27 10° W 18:39:31 21° NW 18:42:19 11° N
SKYMED 2 3.9 18:38:25 10° N 18:42:45 66° WNW 18:47:03 10° SSW
Cosmos 1727 Rocket 4.4 18:38:08 10° SSE 18:43:51 39° E 18:49:32 10° NNE
Cosmos 2322 Rocket 3.2 18:39:52 10° NNW 18:44:40 27° NE 18:44:45 27° NE
Meteor 2-5 Rocket 3.8 18:39:39 10° S 18:45:08 54° E 18:50:44 10° NNE
Cosmos 2278 4.3 18:40:06 10° NNW 18:45:15 34° NE 18:45:42 34° NE
SL-16 R/B 4.5 18:44:40 10° NW 18:47:01 12° NNW 18:49:22 10° NNE
NOSS 3-1 (A) 4.0 18:40:59 10° NW 18:47:53 80° SW 18:56:35 10° SE
Aureole 1 Rocket 4.1 18:41:51 10° NNW 18:48:18 46° NE 18:49:36 40° E
Cosmos 1503 Rocket 4.0 18:43:46 10° NNW 18:49:02 83° WSW 18:54:18 10° SSE
CARTOSAT-1 3.6 18:45:38 10° S 18:49:50 78° WSW 18:54:05 10° NNW
SL-24 R/B 4.4 18:48:56 44° SE 18:50:04 65° ENE 18:54:11 10° N
Cosmos 1328 3.4 18:51:30 10° SSW 18:55:02 83° W 18:55:05 82° NW
USA 215 4.4 18:59:01 23° SE 18:59:01 23° SE 19:03:23 10° S
Radarsat Rocket 4.4 18:52:27 10° S 18:58:20 60° WSW 19:04:07 10° NNW
Cosmos 540 Rocket 4.3 18:53:39 10° S 18:56:54 32° SE 18:56:54 32° SE
ATLAS 2AS CENTAUR R/B 4.3 18:54:50 10° SSE 18:57:06 17° SE 18:57:06 17° SE
Cosmos 2333 Rocket 2.7 18:55:51 10° NNW 19:01:15 41° NE 19:01:15 41° NE
Cosmos 1980 Rocket 2.9 18:57:31 10° NW 19:02:58 54° WSW 19:08:24 10° S
USA 59 Rocket 3.4 19:04:49 10° WSW 19:05:02 10° WSW 19:05:14 10° WSW
Cosmos 1763 Rocket 3.8 19:00:20 10° S 19:04:21 46° SE 19:04:21 46° SE
CSL-04 Rocket 3.8 19:05:32 51° ENE 19:05:32 51° ENE 19:10:26 10° N
CSL-04 Debris 4.3 19:12:43 53° NE 19:12:43 53° NE 19:17:35 10° N
Cosmos 2369 3.8 19:08:05 10° NNW 19:13:46 75° WSW 19:17:01 26° SSE
CZ-4B R/B 4.4 19:17:31 26° NNE 19:17:31 26° NNE 19:20:16 10° N
ATLAS 5 CENTAUR R/B 3.6 19:14:18 10° NNW 19:15:22 14° NNW 19:15:22 14° NNW
ARIANE 6 FM1 Upper Stage 3.5 19:12:37 10° SW 19:15:25 42° SSW 19:15:25 42° SSW
SPOT 5 4.3 19:19:46 23° N 19:19:46 23° N 19:21:38 10° N
USA 229 DEB 4.1 19:12:26 10° NW 19:19:25 54° NNE 19:20:58 48° ENE
USA 229 4.1 19:12:31 10° NW 19:19:30 54° NNE 19:21:02 47° ENE
Cosmos 2219 Rocket 3.5 19:14:58 10° NNW 19:18:23 25° NNE 19:18:23 25° NNE
ISS -1.9 19:17:14 10° W 19:19:20 30° WSW 19:19:20 30° WSW
BlueWalker 3 3.7 19:24:09 10° WSW 19:25:54 27° SW 19:25:54 27° SW
Resurs 01 Rocket 2.8 19:26:22 10° S 19:30:30 42° W 19:34:42 10° NNW
Cosmos 1833 Rocket 4.0 19:25:26 10° WSW 19:30:36 35° NW 19:33:50 20° N
USA 305 4.0 19:28:25 10° W 19:31:01 38° WNW 19:31:01 38° WNW
Cosmos 2360 Rocket 3.1 19:28:10 10° NNW 19:31:59 36° N 19:31:59 36° N
USA 267 3.1 19:33:46 65° E 19:34:50 81° NNE 19:41:25 10° WNW
COSMO-SKYMED 1 4.2 19:34:49 19° NNW 19:37:01 31° WNW 19:40:40 10° SW
Cosmos 1459 Rocket 3.7 19:31:11 10° N 19:37:18 80° E 19:37:23 80° E
Cosmos 2100 Rocket 3.9 19:31:05 10° N 19:37:30 87° E 19:39:14 51° SSE
Cosmos 2082 Rocket 2.1 19:33:31 10° SSW 19:38:38 75° SSW 19:38:38 75° SSW
SL-16 R/B 2.3 19:38:15 10° NNW 19:43:11 67° NNW 19:43:11 67° NNW
BREEZE-M DEB (TANK) 4.2 19:57:28 10° W 20:00:19 57° WSW 20:00:19 57° WSW
Cosmos 2173 Rocket 4.2 19:55:27 10° NNW 20:01:48 69° W 20:03:07 55° SSW
ATLAS 3B R/B 3.0 20:11:31 10° NW 20:18:39 71° N 20:18:39 71° N
Cosmos 2322 Rocket 3.6 20:23:40 10° NNW 20:26:34 31° NW 20:26:34 31° NW
Cosmos 2333 Rocket 3.8 20:40:13 10° NW 20:43:17 30° WNW 20:43:17 30° WNW
Cosmos 2219 Rocket 4.5 20:58:40 10° NNW 21:00:06 18° NNW 21:00:06 18° NNW
